Centralia, IL

6:03 AM CDT on April 24, 2018 (GMT -0500)
Centralia Municipal

Weather History for KENL - July, 2012

Change the Weather History Date:

Thursday, July 12, 2012

  Actual Average (KSLO) Record (KSLO)
Temperature  
Mean Temperature 81 °F -  
Max Temperature 95 °F 89 °F 101 °F (1966)
Min Temperature 67 °F 67 °F 52 °F (1959)
Cooling Degree Days 16    
Growing Degree Days 31 (Base 50)    
Moisture  
Dew Point 62 °F    
Average Humidity 54    
Maximum Humidity 83    
Minimum Humidity 28    
Precipitation  
Precipitation 0.00 in - - ()
Sea Level Pressure  
Sea Level Pressure 30.02 in    
Wind  
Wind Speed 3 mph (East)    
Max Wind Speed 12 mph    
Max Gust Speed 17 mph    
Visibility 10 miles    
Events      
Averages and records for this station are not official NWS values.
T = Trace of Precipitation, MM = Missing Value Source: NWS Daily Summary

Daily Weather History Graph

Daily Weather History Graph

Search for Another Location

Airport or City:

Astronomy

Jul. 12, 2012 Rise Set
Actual Time 5:42 AM CDT 8:21 PM CDT
Civil Twilight 5:11 AM CDT 8:52 PM CDT
Nautical Twilight 4:32 AM CDT 9:30 PM CDT
Astronomical Twilight 3:49 AM CDT 10:14 PM CDT
Moon 12:45 AM CDT (7/12) 2:55 PM CDT (7/12)
Length of Visible Light 15h 40m
Length of Day
14h 38m
Waning Crescent, 35% of the Moon is Illuminated
Jul 12
Waning Crescent
Jul 18
New
Jul 26
First Quarter
Aug 1
Full
Aug 9
Last Quarter

Hourly Weather History & Observations

Time (CDT) Temp. Heat Index Dew Point Humidity Pressure Visibility Wind Dir Wind Speed Gust Speed Precip Events Conditions
12:15 AM 74.3 °F - 63.1 °F 68% 30.02 in 10.0 mi Calm Calm - N/A   Unknown
12:35 AM 74.1 °F - 63.0 °F 68% 30.02 in 10.0 mi Calm Calm - N/A   Unknown
12:55 AM 73.4 °F - 63.1 °F 70% 30.02 in 10.0 mi Calm Calm - N/A   Unknown
1:35 AM 71.2 °F - 62.6 °F 74% 30.01 in 10.0 mi Calm Calm - N/A   Unknown
1:55 AM 70.3 °F - 62.8 °F 77% 30.00 in 10.0 mi ENE 3.5 mph - N/A   Unknown
2:15 AM 70.0 °F - 62.2 °F 76% 30.00 in 10.0 mi East 3.5 mph - N/A   Unknown
2:35 AM 69.3 °F - 61.9 °F 77% 30.00 in 10.0 mi Calm Calm - N/A   Unknown
2:55 AM 69.1 °F - 62.6 °F 80% 30.00 in 10.0 mi Calm Calm - N/A   Unknown
3:15 AM 68.7 °F - 61.9 °F 79% 30.00 in 10.0 mi Calm Calm - N/A   Unknown
3:35 AM 67.5 °F - 61.5 °F 81% 30.00 in 10.0 mi Calm Calm - N/A   Unknown
3:55 AM 69.8 °F - 62.1 °F 76% 30.00 in 10.0 mi East 3.5 mph - N/A   Unknown
4:15 AM 69.3 °F - 61.9 °F 77% 30.00 in 10.0 mi East 3.5 mph - N/A   Unknown
4:35 AM 67.3 °F - 61.9 °F 83% 30.00 in 10.0 mi Calm Calm - N/A   Unknown
4:55 AM 67.5 °F - 61.7 °F 82% 30.01 in 10.0 mi Calm Calm - N/A   Unknown
5:15 AM 67.3 °F - 61.7 °F 82% 30.01 in 10.0 mi Calm Calm - N/A   Unknown
5:35 AM 67.3 °F - 61.3 °F 81% 30.02 in 10.0 mi Calm Calm - N/A   Unknown
5:55 AM 67.1 °F - 61.9 °F 83% 30.03 in 10.0 mi East 3.5 mph - N/A   Unknown
6:15 AM 68.7 °F - 62.1 °F 79% 30.03 in 10.0 mi Calm Calm - N/A   Unknown
6:35 AM 69.8 °F - 63.0 °F 79% 30.03 in 10.0 mi Calm Calm - N/A   Unknown
6:55 AM 72.3 °F - 63.5 °F 74% 30.03 in 10.0 mi Calm Calm - N/A   Unknown
7:15 AM 73.6 °F - 63.7 °F 71% 30.04 in 10.0 mi East 3.5 mph - N/A   Unknown
7:35 AM 75.2 °F - 64.4 °F 69% 30.04 in 10.0 mi NE 3.5 mph - N/A   Unknown
7:55 AM 77.9 °F - 65.5 °F 65% 30.05 in 10.0 mi Calm Calm - N/A   Unknown
8:15 AM 79.9 °F - 65.5 °F 61% 30.05 in 10.0 mi East 4.6 mph - N/A   Unknown
8:35 AM 82.4 °F 84.6 °F 66.2 °F 58% 30.05 in 10.0 mi Calm Calm - N/A   Unknown
8:55 AM 82.6 °F 85.1 °F 67.1 °F 59% 30.05 in 10.0 mi SE 3.5 mph - N/A   Unknown
9:15 AM 83.7 °F 86.7 °F 67.8 °F 59% 30.05 in 10.0 mi SE 4.6 mph - N/A   Unknown
9:35 AM 85.1 °F 88.2 °F 68.0 °F 56% 30.05 in 10.0 mi SE 4.6 mph - N/A   Unknown
9:55 AM 86.5 °F 89.6 °F 67.8 °F 53% 30.05 in 10.0 mi ESE 5.8 mph - N/A   Unknown
10:15 AM 87.3 °F 89.8 °F 66.7 °F 50% 30.05 in 10.0 mi ENE 4.6 mph - N/A   Unknown
10:35 AM 88.2 °F 90.6 °F 66.0 °F 48% 30.05 in 10.0 mi ENE 5.8 mph - N/A   Unknown
10:55 AM 89.4 °F 91.2 °F 64.8 °F 44% 30.05 in 10.0 mi ENE 4.6 mph - N/A   Unknown
11:15 AM 90.3 °F 90.8 °F 62.6 °F 39% 30.05 in 10.0 mi ESE 6.9 mph - N/A   Unknown
11:35 AM 91.2 °F 91.4 °F 61.9 °F 37% 30.05 in 10.0 mi ENE 6.9 mph - N/A   Unknown
11:55 AM 91.9 °F 91.8 °F 60.6 °F 35% 30.05 in 10.0 mi East 6.9 mph - N/A   Unknown
12:15 PM 91.9 °F 92.2 °F 61.3 °F 36% 30.05 in 10.0 mi East 5.8 mph - N/A   Unknown
12:35 PM 93.2 °F 92.9 °F 60.1 °F 33% 30.04 in 10.0 mi NE 9.2 mph 17.3 mph N/A   Unknown
12:55 PM 93.6 °F 93.4 °F 60.3 °F 33% 30.04 in 10.0 mi NNE 8.1 mph 11.5 mph N/A   Unknown
1:15 PM 94.1 °F 93.9 °F 59.7 °F 32% 30.03 in 10.0 mi SE 10.4 mph 16.1 mph N/A   Unknown
1:35 PM 93.6 °F 93.4 °F 60.3 °F 33% 30.03 in 10.0 mi ENE 4.6 mph - N/A   Unknown
1:55 PM 91.8 °F 91.2 °F 60.1 °F 34% 30.03 in 10.0 mi NE 8.1 mph - N/A   Unknown
2:15 PM 90.7 °F 90.7 °F 61.3 °F 37% 30.02 in 10.0 mi ENE 10.4 mph - N/A   Unknown
2:35 PM 92.5 °F 92.6 °F 61.2 °F 35% 30.02 in 10.0 mi ENE 8.1 mph - N/A   Unknown
2:55 PM 94.1 °F 93.5 °F 59.4 °F 31% 30.00 in 10.0 mi East 10.4 mph - N/A   Unknown
3:15 PM 95.0 °F 94.0 °F 57.7 °F 29% 30.00 in 10.0 mi ESE 11.5 mph 17.3 mph N/A   Unknown
3:35 PM 93.7 °F 92.6 °F 57.6 °F 30% 30.00 in 10.0 mi ESE 9.2 mph - N/A   Unknown
3:55 PM 94.6 °F 93.9 °F 58.3 °F 30% 30.00 in 10.0 mi ENE 11.5 mph 17.3 mph N/A   Unknown
4:15 PM 95.5 °F 94.8 °F 58.5 °F 29% 30.00 in 10.0 mi NE 10.4 mph - N/A   Unknown
4:35 PM 94.6 °F 93.2 °F 56.7 °F 28% 29.99 in 10.0 mi ESE 5.8 mph 10.4 mph N/A   Unknown
4:55 PM 94.8 °F 93.4 °F 57.2 °F 28% 29.98 in 10.0 mi ESE 8.1 mph - N/A   Unknown
5:15 PM 94.8 °F 93.8 °F 58.1 °F 29% 29.98 in 10.0 mi ESE 6.9 mph - N/A   Unknown
5:35 PM 92.5 °F 91.0 °F 56.5 °F 30% 29.99 in 10.0 mi ENE 9.2 mph - N/A   Unknown
5:55 PM 93.2 °F 91.9 °F 57.0 °F 30% 29.99 in 10.0 mi ENE 8.1 mph - N/A   Unknown
6:15 PM 93.6 °F 93.1 °F 59.4 °F 32% 29.98 in 10.0 mi ESE 11.5 mph 17.3 mph N/A   Unknown
6:35 PM 91.0 °F 92.2 °F 63.5 °F 40% 29.99 in 10.0 mi ESE 10.4 mph - N/A   Unknown
6:55 PM 90.0 °F 90.6 °F 62.8 °F 40% 30.00 in 10.0 mi ESE 10.4 mph - N/A   Unknown
7:15 PM 88.2 °F 88.4 °F 61.7 °F 41% 30.00 in 10.0 mi ESE 10.4 mph - N/A   Unknown
7:35 PM 87.1 °F 87.2 °F 61.2 °F 42% 30.00 in 10.0 mi ESE 6.9 mph - N/A   Unknown
7:55 PM 86.0 °F 86.1 °F 61.3 °F 43% 30.00 in 10.0 mi ESE 5.8 mph - N/A   Unknown
8:15 PM 85.1 °F 85.4 °F 61.7 °F 45% 30.01 in 10.0 mi Calm Calm - N/A   Unknown
8:35 PM 84.0 °F 84.5 °F 61.9 °F 47% 30.01 in 10.0 mi Calm Calm - N/A   Unknown
8:55 PM 83.1 °F 83.9 °F 62.1 °F 49% 30.01 in 10.0 mi ESE 3.5 mph - N/A   Unknown
9:15 PM 82.4 °F 83.2 °F 62.1 °F 50% 30.01 in 10.0 mi ESE 5.8 mph - N/A   Unknown
9:35 PM 81.9 °F 82.9 °F 62.6 °F 52% 30.01 in 10.0 mi ESE 4.6 mph - N/A   Unknown
9:55 PM 80.4 °F 81.7 °F 62.8 °F 55% 30.02 in 10.0 mi ESE 4.6 mph - N/A   Unknown
10:15 PM 79.7 °F - 63.3 °F 57% 30.03 in 10.0 mi East 3.5 mph - N/A   Unknown
10:35 PM 78.3 °F - 63.5 °F 60% 30.03 in 10.0 mi East 3.5 mph - N/A   Unknown
10:55 PM 78.1 °F - 64.2 °F 62% 30.04 in 10.0 mi SE 5.8 mph - N/A   Unknown
11:15 PM 77.7 °F - 64.4 °F 63% 30.04 in 10.0 mi Calm Calm - N/A   Unknown
11:35 PM 76.5 °F - 64.4 °F 66% 30.04 in 10.0 mi SE 3.5 mph - N/A   Unknown
11:55 PM 75.4 °F - 64.6 °F 69% 30.04 in 10.0 mi Calm Calm - N/A   Unknown